Location: ????????
(55.6189°N, 38.3031°E)
Time: 18:07:52
(UTC+00:00)

Cosmos 1484 Rocket - Pass Details

Date: 15 November 2019
Orbit: 507 x 559 km, 97.4° (Epoch: 13 December)

Event Time Altitude Azimuth Distance (km) Brightness Sun altitude
Rises 02:41:44 0° 15° (NNE) 2,741 6.5 -19.2°
Reaches altitude 10° 02:43:52 10° 16° (NNE) 1,848 5.6 -18.9°
Maximum altitude 02:47:53 78° 103° (ESE) 577 2.9 -18.4°
Drops below altitude 10° 02:51:53 10° 191° (S) 1,846 5.5 -17.8°
Sets 02:54:01 0° 193° (SSW) 2,738 6.3 -17.5°
